Regional Weather Roundup
Issued by NWS Mt. Holly, NJ

Home | Current Version | Previous Version | Text Only | Print | Product List | Glossary On
Versions: 1 2 3 4 5 6 7 8 9 10 11 12 13 14 15 16 17 18 19 20 21 22 23 24 25 26 27 28 29 30 31 32 33 34 35 36 37 38 39 40 41 42 43 44 45 46 47 48 49 50
000
ASUS41 KPHI 071612
RWRPHI

REGIONAL WEATHER ROUNDUP
NATIONAL WEATHER SERVICE MOUNT HOLLY NJ
1200 PM EDT TUE JUL 07 2015

NOTE:  "FAIR" INDICATES FEW OR NO CLOUDS BELOW 12,000 FEET WITH NO
SIGNIFICANT WEATHER AND/OR OBSTRUCTIONS TO VISIBILITY.

 * = STATION DOES NOT REPORT PRECIPITATION (E.G. RAIN, SNOW, ETC.)
        OR FOG.

NJZ015>026-071700-
SOUTHERN NEW JERSEY

CITY           SKY/WX    TMP DP  RH WIND       PRES   REMARKS
POMONA         MOSUNNY   85  73  67 SW9       30.04F HX  91
RIO GRANDE*    SUNNY     84  73  70 SW10      30.06F HX  91
MILLVILLE      MOSUNNY   84  73  69 SW7       30.04F HX  90
WRIGHTSTOWN    SUNNY     86  73  63 W9        30.00F HX  93
MOUNT HOLLY    MOSUNNY   84  72  67 W7        30.02F
TRENTON        MOSUNNY   83  72  69 SW8       30.02F

$$
NJZ001>014-071700-
NORTHERN NEW JERSEY

CITY           SKY/WX    TMP DP  RH WIND       PRES   REMARKS
ANDOVER*         N/A     81  71  71 SW10      30.03F
MORRISTOWN     PTSUNNY   88  73  62 MISG      30.02F HX  96
NEWARK         PTSUNNY   85  71  63 S12G17    30.01F HX  90
TETERBORO      MOSUNNY   86  69  56 SW10      29.99F HX  90
CALDWELL       MOSUNNY   83  70  64 SW8       30.02F
SOMERVILLE     PTSUNNY   83  72  69 CALM      30.00F
ALLAIRE*       PTSUNNY   84  72  65 SE9       30.02F
TOMS RIVER*    PTSUNNY   88  72  58 W9        30.02F HX  94

$$
PAZ043-044-047-054-055-060>062-066>071-071700-
EASTERN PENNSYLVANIA

CITY           SKY/WX    TMP DP  RH WIND       PRES   REMARKS
PHILADELPHIA   MOSUNNY   84  70  62 SW7       30.03F
NORTH PHILA    SUNNY     85  68  56 SW8       30.03F
BLUE BELL      MOSUNNY   84  72  65 SW8       30.03S
DOYLESTOWN     PTSUNNY   81  70  69 S6        30.03F
QUAKERTOWN*    MOSUNNY   82  73  74 S7        30.04F
POTTSTOWN      PTSUNNY   81  71  71 SW3       30.04F
LANCASTER      MOSUNNY   81  70  69 W9        30.03F
COATESVILLE    MOSUNNY   81  73  78 SW3       30.06S
READING        PTSUNNY   84  71  65 SW8       30.01F
ALLENTOWN      PTSUNNY   82  71  69 SW7       30.02S
MOUNT POCONO   CLOUDY    75  66  73 SW7       30.08S
HAZLETON       CLOUDY    77  68  73 W6        30.09F
WILKES BARRE   PTSUNNY   81  69  67 SW7       30.02F

$$
DEZALL-MDZ008-012-015-019-020-071700-
DELAWARE AND EASTERN MARYLAND

CITY           SKY/WX    TMP DP  RH WIND       PRES   REMARKS
WILMINGTON     MOSUNNY   83  72  69 SW9       30.04F
DOVER          MOSUNNY   85  75  71 SW10      30.03F HX  93
GEORGETOWN     SUNNY     85  71  63 SW14      30.06S HX  90
EASTON         MOSUNNY   86  73  66 W7        30.09S HX  93
ABERDEEN       MOSUNNY   84  72  65 W9        30.03F
PATUXENT       MOSUNNY   85  70  60 SW8       30.05F
OCEAN CITY     MOSUNNY   87  73  62 SW12      30.06S HX  94
WALLOPS ISLAND MOSUNNY   85  70  60 SW13      30.08F
CAMBRIDGE      SUNNY     84  68  58 SW6       30.05S
SALISBURY      SUNNY     84  71  65 SW8G17    30.06F

$$
PAZ001-021-NYZ056-072-MDZ011-DCZ001-071700-
OTHER NEARBY LOCATIONS

CITY           SKY/WX    TMP DP  RH WIND       PRES   REMARKS
HARRISBURG     MOSUNNY   80  71  74 VRB3      30.02F
STATE COLLEGE  MOSUNNY   79  70  73 SW7       30.05F
WILLIAMSPORT   PTSUNNY   79  69  71 W7        30.00F
BINGHAMTON     PTSUNNY   77  69  76 SW10      30.01F
NEW YORK CITY  PTSUNNY   83  72  69 MISG      30.04F
BALTIMORE      MOSUNNY   84  68  58 W5        30.04F
WASHINGTON DC  MOSUNNY   87  74  64 SE7       30.05F HX  95

$$


USA.gov is the U.S. government's official web portal to all federal, state and local government web resources and services.